Theta_e
346 347 347 348 350 353 355 357 358 363 361 358 355 352 349 350 349 351 356 359 361 362 364 359 358 361 361 365 363 364 363 357 360 356 353 355 358 359 360 360 360 361 365
345 347 347 349 349 351 355 359 360 362 362 359 358 355 353 352 353 353 356 360 361 362 361 362 360 359 359 367 362 363 356 354 359 353 350 343 349 354 354 357 357 359 361
343 346 348 349 349 350 353 357 360 362 363 363 359 357 355 355 353 354 355 359 363 363 363 363 362 362 362 358 372 365 362 350 358 363 353 342 342 347 352 355 355 357 356
342 345 347 349 350 351 354 358 361 362 362 364 363 366 353 351 353 357 358 358 363 363 363 363 363 364 359 365 371 360 363 361 352 354 358 359 355 342 338 353 354 357 356
336 341 345 349 350 352 352 355 360 362 363 363 363 359 358 354 355 355 364 367 364 364 363 363 364 362 361 367 367 364 371 358 364 362 353 359 355 357 348 339 344 353 354
339 336 343 348 350 351 351 352 357 362 362 362 362 363 365 361 355 358 355 356 358 359 364 363 361 359 360 362 366 372 370 375 362 371 360 353 349 347 359 346 346 345 350
342 337 339 343 348 350 351 350 353 356 359 359 357 359 361 361 361 363 356 361 354 355 358 362 359 356 363 366 372 372 373 370 364 369 363 362 355 354 351 348 344 344 349
342 341 340 343 346 348 350 351 352 354 358 357 360 357 355 356 356 362 358 356 355 355 361 360 360 361 365 367 372 378 376 370 375 366 370 362 355 355 355 349 350 346 344
342 342 343 343 345 346 349 350 351 354 357 357 357 357 358 360 358 365 361 359 363 357 362 362 360 362 366 367 368 367 371 369 368 366 370 364 359 356 357 356 353 352 339
341 342 343 343 344 345 347 348 350 351 355 358 357 357 358 360 361 361 362 363 361 363 363 362 361 362 365 362 361 358 358 358 355 356 364 363 364 360 358 357 353 356 353
338 338 339 341 342 344 345 346 348 349 353 355 354 357 359 361 362 361 362 363 362 365 365 364 363 362 359 357 355 355 355 353 355 358 358 361 365 353 358 355 353 353 353
341 342 345 346 345 344 346 348 352 352 352 355 357 358 360 361 360 362 362 363 362 365 365 364 360 355 352 353 355 351 353 352 353 352 353 354 355 358 356 364 356 356 353
340 341 342 344 345 347 349 349 349 349 353 358 356 358 360 363 363 363 363 363 363 363 363 358 353 352 349 351 348 350 352 352 353 351 352 352 353 352 349 351 350 353 351
338 341 342 343 344 347 348 349 350 353 355 357 358 360 361 362 362 363 363 363 364 363 358 356 354 351 352 347 347 350 352 352 345 342 343 339 345 347 345 346 347 351 348
336 336 335 336 337 340 343 346 349 352 353 354 354 356 360 363 364 360 358 360 361 361 359 358 357 352 346 347 349 349 349 347 344 345 343 337 340 342 343 346 347 347 347
329 331 332 332 334 335 337 339 341 345 350 352 353 354 354 354 355 357 353 353 357 358 356 354 352 348 344 334 337 346 347 347 346 344 342 341 337 337 335 335 334 338 336
329 329 330 331 333 334 336 335 338 342 345 348 350 353 353 350 354 354 353 351 352 353 351 351 348 345 346 331 332 335 347 346 345 344 342 339 338 339 337 330 330 330 329
327 329 330 331 332 333 334 335 336 337 337 340 344 348 351 351 349 348 351 351 350 347 349 347 346 345 342 328 326 332 346 344 344 342 340 339 340 337 339 339 337 336 334
329 330 331 331 333 332 334 334 333 333 333 333 337 342 347 347 347 344 343 346 345 344 346 344 344 345 339 323 323 331 342 338 337 335 336 336 332 317 321 337 333 333 327
330 329 329 329 330 333 334 332 331 331 332 333 334 337 344 346 344 345 340 339 343 345 344 342 343 335 335 319 319 329 337 333 330 331 327 316 323 314 315 333 331 328 329
328 329 331 330 331 332 331 328 328 328 330 332 332 333 336 342 343 344 342 339 340 340 338 341 337 336 332 327 317 320 335 331 329 327 326 324 313 311 312 316 328 325 326
329 330 329 329 331 330 328 327 326 329 330 330 328 329 333 336 341 340 341 337 337 335 328 328 327 330 332 321 315 315 319 324 326 323 325 321 310 309 312 321 312 314 319
330 330 328 328 327 329 325 321 323 324 325 325 325 326 330 334 342 340 337 335 333 324 322 321 321 323 325 324 312 312 314 317 324 325 315 311 309 310 313 313 314 314 325
328 328 328 325 327 326 327 322 323 327 333 325 323 324 328 327 331 335 335 332 324 320 319 319 319 319 321 318 317 317 319 317 321 317 321 317 317 314 317 318 319 322 318
328 328 326 325 325 326 326 320 320 324 323 317 316 316 317 317 317 315 312 312 325 320 320 320 320 320 319 318 311 314 319 321 318 321 321 321 320 319 320 321 322 322 321
327 327 325 325 324 324 324 324 321 321 317 313 314 318 320 322 321 319 317 308 306 305 303 307 318 314 306 300 299 298 300 303 305 318 319 318 318 319 321 321 320 319 317
Wind_Speed
17 18 19 19 19 19 18 17 16 14 11 10 10 10 11 10 10 10 12 11 11 11 9 9 9 8 8 4 8 8 8 5 5 6 7 8 8 9 7 6 7 8 9
18 19 20 21 21 20 19 18 17 16 14 11 10 10 9 10 9 9 11 13 13 13 11 10 9 9 8 5 8 8 8 6 3 7 6 7 3 5 5 5 5 7 7
18 20 21 22 22 21 21 20 20 19 17 17 11 9 8 8 8 10 11 12 14 14 13 12 10 10 9 10 6 7 7 6 6 7 5 7 3 3 6 6 5 5 7
14 17 21 22 24 23 20 20 19 19 17 16 13 13 12 12 11 10 10 10 13 14 14 13 12 11 10 9 6 9 6 5 7 7 7 6 8 7 6 5 5 5 7
10 17 20 22 21 18 19 19 19 17 16 16 17 13 14 12 11 11 11 11 10 13 13 13 13 12 11 10 9 9 8 9 6 6 6 5 7 7 8 8 3 6 6
6 10 15 17 18 18 18 18 19 17 16 16 16 15 14 14 12 11 11 10 9 10 13 13 11 12 11 12 10 9 11 9 9 6 6 7 7 8 5 9 8 7 6
10 4 10 12 14 17 19 18 19 18 18 18 15 18 17 17 16 15 12 12 10 10 10 10 11 10 12 11 8 8 9 8 10 9 8 8 10 8 8 6 9 9 7
12 9 5 7 10 13 16 17 15 14 17 18 19 15 21 13 14 16 14 12 11 11 10 9 11 12 10 8 7 6 6 8 7 11 10 8 10 8 8 8 9 8 8
13 14 11 7 6 7 9 12 12 13 14 16 11 15 9 16 16 16 14 12 12 10 9 9 10 11 8 7 5 6 7 8 8 9 9 9 10 11 8 9 8 7 8
15 15 14 13 9 6 5 7 8 9 11 13 11 11 15 16 16 16 15 13 11 12 10 11 11 11 7 4 1 5 6 8 9 11 12 9 9 11 9 8 7 7 7
12 11 11 10 11 11 7 6 5 6 10 11 11 13 15 17 15 15 14 13 12 11 12 12 12 11 10 8 5 2 9 12 12 11 13 15 12 10 8 10 8 8 8
10 9 10 11 10 8 8 7 10 7 6 6 5 7 12 15 12 12 13 12 13 13 15 14 13 13 10 8 6 2 2 6 11 10 11 14 11 12 7 6 7 8 6
6 8 9 10 10 10 9 7 3 4 4 5 5 4 9 12 9 10 11 12 13 14 15 15 15 12 8 6 1 4 4 5 6 8 11 14 14 12 4 4 6 7 5
6 9 9 9 9 9 8 8 8 8 8 9 9 7 8 9 7 8 10 11 12 12 14 15 12 11 5 3 1 3 1 3 3 5 6 7 9 5 4 4 3 2 3
6 8 9 9 9 9 8 8 7 7 7 7 8 9 9 8 6 8 8 10 12 14 15 14 10 5 4 4 6 5 5 7 5 4 2 4 3 3 4 2 3 4 3
6 7 8 10 11 11 10 10 10 9 8 8 7 8 8 7 6 4 8 10 13 13 12 11 9 7 6 10 6 6 8 7 4 3 4 4 3 3 8 11 11 7 5
6 7 8 9 10 11 12 13 13 13 12 12 11 9 8 8 8 7 10 11 11 11 10 9 8 8 6 7 9 7 5 4 7 6 5 4 6 5 7 10 11 9 9
6 7 8 9 9 9 9 11 12 13 13 14 13 12 10 11 9 8 10 10 8 9 9 9 7 7 7 8 4 8 6 6 7 5 3 4 4 5 4 6 7 7 6
6 6 7 8 7 10 11 13 14 14 14 15 15 14 11 12 12 10 9 9 8 9 9 8 10 9 8 10 9 8 6 8 9 7 5 5 6 5 8 4 5 3 4
5 6 7 9 10 11 13 14 15 15 15 15 16 16 15 11 14 13 10 6 6 8 7 8 9 8 10 9 9 10 8 10 9 9 8 10 7 6 7 1 4 4 2
6 7 8 10 11 13 15 17 18 18 18 18 17 17 18 14 12 12 11 8 7 7 9 11 9 11 12 11 8 6 9 9 8 6 5 8 7 3 3 6 2 3 3
8 9 9 10 11 13 15 18 19 21 21 18 15 19 19 15 9 11 8 8 9 9 10 10 9 9 12 13 8 8 11 8 7 5 5 8 9 4 1 7 4 4 10
7 7 8 10 11 14 13 16 17 18 17 14 14 14 18 15 12 11 10 8 8 9 8 8 10 9 9 9 12 14 11 8 7 8 11 12 13 14 10 5 4 10 1
5 7 9 9 12 13 15 15 17 17 14 13 8 8 10 6 4 1 4 6 8 8 8 7 7 10 5 9 9 9 9 12 14 13 10 8 7 11 7 8 5 3 4
5 6 6 7 11 12 14 15 15 15 13 11 10 9 8 8 11 11 9 7 1 8 11 10 7 8 7 3 12 8 9 9 9 10 8 8 6 5 4 4 2 1 0
3 4 5 6 7 11 12 12 11 11 11 11 8 7 8 8 9 8 11 23 25 18 21 6 10 5 13 11 14 14 13 13 6 6 6 5 5 3 2 1 1 1 2
Wind_Direction
199 195 198 201 201 202 202 206 205 207 207 204 209 213 217 219 225 228 230 238 239 242 244 255 256 243 259 295 271 265 252 291 257 277 266 242 240 250 239 231 243 230 215
203 199 197 200 204 202 204 205 213 205 206 210 217 225 223 226 226 226 229 224 233 240 241 246 260 271 281 255 252 252 282 287 268 281 308 268 219 204 222 240 242 251 230
205 200 202 202 203 206 202 205 207 211 208 218 210 219 241 238 231 229 232 226 231 234 232 244 252 271 271 275 220 254 244 286 284 260 293 304 309 2 149 201 239 228 236
223 217 200 208 206 205 202 205 209 209 210 210 222 216 222 231 232 236 236 237 227 232 233 234 241 248 264 283 276 245 270 252 279 269 227 273 305 296 296 164 186 215 234
256 218 218 202 216 207 205 203 206 210 214 204 223 217 229 242 240 244 240 233 241 227 237 232 241 245 245 243 244 256 242 259 228 290 295 292 279 252 274 286 247 185 205
308 252 217 209 203 206 205 205 202 205 208 214 211 231 241 238 255 237 247 240 234 223 221 240 232 234 238 243 251 249 236 235 261 247 233 265 267 252 211 264 254 279 278
7 312 195 204 198 205 204 202 202 199 202 205 205 211 224 237 247 247 240 243 238 235 232 214 234 230 227 248 262 264 260 246 248 256 247 238 248 268 289 289 285 283 282
35 39 110 165 192 201 207 205 198 202 200 203 212 203 211 226 234 237 242 236 233 242 226 216 229 223 240 252 258 257 258 264 260 262 262 253 258 266 249 260 268 291 284
54 50 66 87 131 191 204 215 208 202 207 224 213 229 229 221 236 240 232 229 245 242 217 216 226 220 221 236 270 274 290 288 280 269 254 251 256 258 240 239 256 242 273
73 76 73 66 69 105 146 198 216 215 221 213 221 247 249 235 239 243 235 234 235 234 242 191 209 212 201 183 328 308 315 314 293 288 281 252 233 241 243 234 257 252 244
73 65 59 49 58 57 79 123 167 225 220 220 200 187 245 233 223 234 235 234 230 224 219 201 188 180 177 158 154 292 302 304 294 288 282 274 257 238 227 221 222 241 237
65 61 60 52 55 67 35 37 28 339 277 302 276 134 248 254 234 228 228 222 226 212 207 192 182 179 180 187 216 221 307 298 297 293 282 269 263 247 243 216 211 226 235
34 58 62 57 49 41 40 30 86 353 358 309 272 256 259 256 248 248 237 225 219 213 198 187 189 191 190 190 299 13 316 301 292 304 298 284 253 238 183 186 199 218 227
51 49 47 44 43 38 28 22 15 15 3 349 350 324 282 261 252 237 235 230 222 201 203 209 204 201 203 206 64 240 20 303 80 61 19 6 334 147 137 175 185 252 217
71 55 42 32 27 23 16 14 7 357 349 335 332 328 319 315 275 242 223 217 214 216 216 224 229 218 168 216 197 138 181 161 179 93 26 31 15 340 157 197 169 211 206
71 46 27 13 10 6 1 356 353 345 330 319 319 321 322 310 292 248 202 216 223 223 219 226 231 209 194 153 153 172 195 167 123 155 105 152 156 82 65 73 56 48 97
63 34 18 7 2 354 355 351 343 334 330 324 319 314 304 291 280 239 214 218 223 225 215 205 196 198 172 143 153 214 209 140 111 141 134 157 109 136 110 101 106 91 97
48 27 12 359 351 343 343 328 327 322 319 309 302 297 289 277 263 242 226 213 199 198 204 194 192 175 148 139 166 212 165 126 116 117 144 102 139 61 148 128 125 132 129
46 20 360 340 333 326 324 312 308 306 299 298 293 286 273 265 256 226 214 213 190 206 198 188 182 187 146 145 176 206 157 125 110 100 100 126 108 42 355 125 114 135 139
52 7 342 332 350 340 328 320 311 308 300 293 289 290 280 239 243 235 203 201 223 210 202 170 181 160 150 156 172 207 153 141 124 135 125 55 61 21 3 299 182 202 111
44 360 4 5 359 349 339 321 313 306 304 296 290 282 277 260 226 227 216 187 194 198 180 177 163 160 148 154 173 232 149 138 141 141 155 107 76 38 2 333 341 59 127
29 25 16 5 350 352 333 318 312 310 305 296 285 281 275 266 222 214 205 192 202 176 162 161 151 144 142 147 121 80 69 80 114 112 94 90 95 83 14 90 96 252 281
42 25 16 360 354 351 336 321 316 311 298 289 274 266 273 263 240 207 191 189 176 154 156 157 150 142 135 124 109 98 97 62 108 86 84 119 136 124 102 91 261 262 335
36 31 19 4 5 355 349 345 335 321 327 340 313 276 296 339 315 222 195 174 155 146 133 134 134 109 128 120 131 112 108 109 106 126 134 109 91 64 98 178 198 62 13
52 28 23 24 13 8 12 8 359 18 41 42 53 51 55 63 80 63 46 32 19 152 136 118 125 117 128 192 90 120 139 145 117 135 152 171 170 159 149 135 92 76 274
68 32 41 43 26 31 31 29 17 37 55 46 31 34 62 72 80 83 74 52 59 47 51 58 122 79 111 78 76 78 79 84 99 194 166 174 167 167 131 100 42 108 186